Total_Precipitation_Accumulation
1.33 1.44 1.60 1.57 1.57 1.50 1.45 1.76 1.56 1.15 1.13 0.97 0.56 0.66 0.74 0.81 0.93 0.65 0.40 0.37 0.60 1.36 1.49 0.37 0.23 0.34 0.85 1.66 1.56 1.71 2.40 1.36 0.66 0.47 0.16 0.10 0.27 0.04 0.04 0.17 0.06 0.06 0.21 0.55 1.54
1.88 1.79 1.70 1.84 1.88 1.90 1.65 1.22 0.91 0.70 0.73 0.72 0.39 0.52 0.70 0.75 0.84 0.66 0.41 0.41 0.54 0.85 1.24 0.72 0.43 0.61 0.68 1.48 1.66 1.99 2.11 1.11 0.71 0.52 0.35 0.30 0.40 0.18 0.10 0.16 0.37 0.24 0.20 0.57 1.69
1.08 1.18 1.14 1.21 1.43 1.41 1.20 0.61 0.56 0.50 0.58 0.45 0.38 0.42 0.69 0.56 0.55 0.34 0.21 0.29 0.71 0.68 0.84 0.70 0.58 0.77 0.55 1.21 1.90 1.60 1.19 1.06 0.84 0.78 0.68 0.40 0.23 0.24 0.26 0.18 0.35 0.22 0.37 0.88 1.83
0.85 0.88 0.91 0.91 1.08 1.00 0.73 0.55 0.54 0.60 0.58 0.34 0.34 0.47 0.66 0.58 0.56 0.23 0.31 0.27 0.46 0.65 0.71 0.89 0.69 0.69 0.49 0.63 1.62 1.59 1.02 1.18 1.09 1.07 0.85 0.54 0.32 0.21 0.19 0.06 0.12 0.62 0.67 1.02 1.36
0.86 0.85 0.77 0.71 0.82 0.92 0.72 0.65 0.76 0.85 0.60 0.39 0.43 0.72 0.77 0.43 0.12 0.24 0.22 0.31 0.37 0.90 0.80 1.08 0.74 0.51 0.38 0.40 1.37 1.64 1.45 0.97 1.06 0.89 0.71 0.52 0.51 0.23 0.09 0.05 0.20 0.40 0.65 0.75 1.46
0.90 0.85 0.75 0.72 0.67 0.79 0.63 0.46 0.58 1.10 0.66 0.39 0.56 0.96 0.68 0.26 0.03 0.09 0.20 0.16 0.34 0.79 0.82 1.15 0.75 0.48 0.34 0.40 0.91 1.31 1.72 1.15 0.99 0.86 0.57 0.51 0.41 0.33 0.12 0.14 0.44 0.40 0.59 0.86 1.07
0.83 0.74 0.67 0.76 0.71 0.75 0.64 0.61 0.86 1.13 0.60 0.59 0.88 1.05 0.56 0.09 0.03 0.09 0.15 0.23 0.37 0.71 0.97 0.99 0.66 0.70 0.38 0.34 0.30 0.86 1.88 1.45 0.93 1.03 0.60 0.55 0.75 0.46 0.07 0.20 0.52 0.68 0.74 1.33 1.07
0.84 0.70 0.70 0.77 0.64 0.61 0.59 0.56 0.82 1.00 0.75 0.75 1.20 1.10 0.37 0.02 0.03 0.03 0.12 0.23 0.29 0.68 0.84 1.14 1.00 0.78 0.50 0.33 0.37 0.64 1.60 1.88 0.99 1.02 0.85 0.81 0.62 0.17 0.12 0.12 0.35 0.49 0.70 1.25 0.94
0.89 0.79 0.78 0.69 0.61 0.60 0.52 0.59 0.76 0.74 0.76 1.23 1.13 0.69 0.17 0.04 0.06 0.03 0.14 0.23 0.26 0.72 1.01 1.88 1.92 1.09 0.69 0.72 0.77 0.65 0.79 1.10 1.14 0.86 0.96 0.61 0.37 0.13 0.22 0.12 0.13 0.22 0.41 1.04 1.06
0.88 0.81 0.86 0.78 0.76 0.70 0.69 0.84 1.10 1.06 1.02 1.56 0.96 0.84 0.15 0.05 0.14 0.08 0.22 0.30 0.50 1.15 1.80 2.67 2.12 1.47 0.84 1.02 0.83 0.40 0.47 0.43 0.63 0.76 0.80 0.69 0.35 0.16 0.10 0.21 0.04 0.09 0.22 0.61 0.93
0.80 0.84 0.88 0.80 0.95 1.11 1.26 1.67 1.48 1.61 1.19 0.81 0.52 0.40 0.17 0.26 0.39 0.27 0.35 0.56 0.97 1.58 1.71 2.40 1.69 1.17 0.47 0.30 0.26 0.38 0.48 0.43 0.25 0.36 0.76 0.71 0.40 0.21 0.14 0.15 0.10 0.06 0.24 0.62 1.07
0.82 0.85 0.85 0.82 1.07 1.32 1.32 1.28 0.80 0.83 0.90 0.41 0.36 0.36 0.23 0.48 0.74 0.58 0.41 1.00 1.03 1.28 1.62 2.31 1.18 0.34 0.37 0.35 0.39 0.55 0.68 0.53 0.33 0.24 0.50 0.55 0.27 0.37 0.31 0.16 0.21 0.22 0.42 0.75 0.84
0.91 0.95 1.13 1.23 1.35 1.82 1.18 0.80 0.77 1.00 1.28 0.86 0.56 0.49 0.42 0.85 0.79 0.76 0.56 1.21 0.84 1.08 1.67 1.78 0.63 0.36 0.55 0.63 0.54 0.51 0.61 0.46 0.48 0.36 0.46 0.51 0.40 0.16 0.12 0.11 0.07 0.12 0.30 0.57 0.77
1.15 1.43 1.55 1.79 2.13 1.27 1.34 0.98 1.04 1.66 2.27 1.23 0.80 0.65 0.73 1.01 1.05 0.58 1.07 1.55 0.91 1.23 1.47 1.36 0.63 0.59 0.78 0.63 0.51 0.59 0.30 0.30 0.38 0.81 0.91 0.71 1.10 0.08 0.06 0.13 0.09 0.19 0.44 0.72 0.53
1.55 1.72 1.78 2.36 2.57 1.48 1.41 1.07 1.31 2.44 2.19 1.11 0.86 0.79 0.79 0.73 0.68 0.81 1.06 1.44 0.77 1.04 1.66 1.47 0.76 0.64 1.02 0.74 0.36 0.45 0.21 0.19 0.47 0.82 1.10 0.70 1.49 0.42 0.17 0.42 0.45 0.94 0.81 1.55 1.28
1.40 1.32 1.80 2.20 2.29 1.56 1.47 1.66 2.18 2.77 2.05 1.39 1.24 0.88 0.78 0.59 0.64 1.04 1.15 1.15 0.86 1.14 1.15 1.00 0.70 0.78 0.80 0.80 0.52 0.43 0.60 0.56 0.62 1.29 2.27 0.62 0.87 0.50 0.21 0.34 0.21 0.52 0.69 1.57 2.08
1.26 1.28 1.64 1.70 1.90 1.90 2.40 2.27 2.67 1.77 1.16 1.20 1.07 0.82 0.75 0.69 0.81 0.93 1.33 1.33 1.79 1.58 1.69 1.79 1.18 0.75 0.78 1.41 1.18 1.37 2.00 2.57 2.08 2.40 1.54 0.22 0.51 0.70 0.13 0.08 0.19 0.62 0.88 1.68 2.36
1.39 1.31 1.60 1.41 2.03 2.02 3.05 2.27 1.79 0.70 1.03 0.92 0.39 0.47 0.54 0.33 0.62 0.79 0.99 0.87 0.82 0.70 1.13 1.32 1.35 1.01 0.77 1.51 2.04 1.35 2.04 2.54 1.67 0.74 0.38 0.13 0.53 0.44 0.06 0.02 0.06 0.56 0.74 1.39 1.69
1.70 1.94 2.73 1.54 2.11 2.71 2.91 2.38 1.16 1.00 1.15 0.69 0.51 0.42 0.39 0.31 0.64 0.74 0.88 0.67 0.57 0.48 1.22 0.96 0.75 0.53 0.54 0.57 1.40 1.83 1.87 1.10 1.70 0.81 0.71 0.32 0.21 0.12 0.01 0.00 0.00 0.16 0.66 1.35 1.28
1.89 2.14 2.67 1.82 1.86 3.49 3.43 1.96 1.05 0.89 0.57 0.38 0.54 0.33 0.32 0.32 0.61 0.61 0.73 0.71 0.49 0.35 0.62 0.90 1.27 0.54 0.66 0.97 1.25 1.63 1.36 1.63 2.73 1.94 0.79 0.23 0.35 0.41 0.16 0.08 0.03 0.03 0.19 0.33 0.61
1.51 2.64 2.15 2.41 2.67 3.97 3.26 1.75 0.98 0.53 0.57 0.46 0.23 0.35 0.34 0.24 0.46 0.42 0.54 0.50 0.38 0.17 0.33 1.12 1.57 0.90 1.04 1.37 1.50 1.69 2.88 1.85 1.75 0.99 1.29 0.67 0.68 0.69 0.46 0.38 0.36 0.20 0.17 0.19 0.22
1.74 2.19 2.00 2.69 3.70 2.82 2.26 1.77 0.98 0.53 0.46 0.45 0.35 0.44 0.37 0.22 0.38 0.28 0.26 0.39 0.30 0.31 0.53 0.99 1.88 1.26 0.61 0.75 0.79 1.13 1.66 2.03 1.75 1.15 1.06 1.35 1.16 0.44 0.64 0.71 0.88 0.70 0.47 0.31 0.27
2.37 2.44 2.97 2.04 1.91 1.57 1.79 1.25 0.73 0.47 0.43 0.44 0.24 0.25 0.22 0.18 0.37 0.14 0.15 0.12 0.14 0.25 0.76 1.41 2.09 1.55 1.12 1.48 1.01 1.50 1.30 1.77 2.00 2.01 1.63 2.00 1.70 0.67 0.67 0.73 1.03 0.95 0.67 0.61 0.40
2.70 2.54 3.78 3.00 1.38 1.67 1.61 1.13 0.73 0.40 0.33 0.43 0.26 0.17 0.15 0.10 0.11 0.16 0.11 0.05 0.03 0.13 0.57 1.28 1.44 1.35 1.33 1.47 1.65 1.33 0.96 1.44 2.62 3.13 1.46 1.78 1.60 1.25 0.96 0.85 0.97 0.82 0.83 0.78 0.70
2.32 1.31 1.17 1.37 0.96 0.89 1.27 1.18 0.77 0.62 0.47 0.43 0.31 0.20 0.35 0.32 0.08 0.06 0.06 0.05 0.06 0.08 0.35 1.37 1.58 1.09 0.54 0.36 1.11 1.29 1.30 1.42 2.36 1.92 2.17 1.92 1.50 1.63 1.65 1.86 1.66 1.44 1.20 0.87 0.74
2.11 1.50 1.04 0.55 0.30 0.53 1.12 1.25 0.85 0.78 0.71 0.35 0.26 0.17 0.15 0.27 0.24 0.17 0.12 0.14 0.14 0.11 0.30 0.90 1.52 1.33 0.87 0.52 0.73 1.16 1.08 1.36 1.52 1.55 1.77 1.23 1.07 1.20 1.53 1.37 1.25 1.17 1.18 0.98 1.09
1.92 1.41 2.01 0.83 0.35 0.59 0.80 1.01 0.83 0.72 0.49 0.19 0.21 0.29 0.18 0.09 0.06 0.05 0.09 0.13 0.30 0.34 0.37 0.77 1.11 1.34 0.85 0.56 0.87 1.66 1.77 1.42 1.25 1.42 1.71 1.89 1.78 1.50 1.47 1.34 1.58 1.51 1.37 1.31 1.60